Time,TemperatureF,DewpointF,PressureIn,WindDirection,WindDirectionDegrees,WindSpeedMPH,WindSpeedGustMPH,Humidity,HourlyPrecipIn,Conditions,Clouds,dailyrainin,SolarRadiationWatts/m^2,SoftwareType,DateUTC
2013-01-26 00:00:00,34.0,-99.9,-100.00,WNW,300,0.0,2.0,-999,-99.99,,,0.01,0.000000,,2013-01-26 07:00:00,
2013-01-26 00:52:00,34.0,-99.9,-100.00,WNW,300,0.0,2.0,-999,-99.99,,,0.01,0.000000,,2013-01-26 07:52:00,
2013-01-26 01:00:00,34.0,-99.9,-100.00,North,-999,-999.0,-999.0,-999,-99.99,,,0.01,,,2013-01-26 08:00:00,
2013-01-26 01:54:00,34.0,-99.9,-100.00,North,-999,-999.0,-999.0,-999,-99.99,,,0.01,,,2013-01-26 08:54:00,
2013-01-26 02:00:00,35.0,-99.9,-100.00,NW,323,0.0,0.0,-999,-99.99,,,0.02,0.000000,,2013-01-26 09:00:00,
2013-01-26 02:52:00,35.0,-99.9,-100.00,NW,323,0.0,0.0,-999,-99.99,,,0.02,0.000000,,2013-01-26 09:52:00,
2013-01-26 03:00:00,35.0,-99.9,-100.00,NW,309,0.0,0.0,-999,-99.99,,,0.02,0.000000,,2013-01-26 10:00:00,
2013-01-26 03:52:00,35.0,-99.9,-100.00,NW,309,0.0,0.0,-999,-99.99,,,0.02,0.000000,,2013-01-26 10:52:00,
2013-01-26 05:00:00,37.0,-99.9,-100.00,NNW,332,1.0,11.0,-999,-99.99,,,0.03,0.000000,,2013-01-26 12:00:00,
2013-01-26 05:53:00,37.0,-99.9,-100.00,NNW,332,1.0,11.0,-999,-99.99,,,0.03,0.000000,,2013-01-26 12:53:00,
2013-01-26 06:00:00,36.0,-99.9,-100.00,NW,320,3.0,13.0,-999,-99.99,,,0.04,0.000000,,2013-01-26 13:00:00,
2013-01-26 06:53:00,36.0,-99.9,-100.00,NW,320,3.0,13.0,-999,-99.99,,,0.04,0.000000,,2013-01-26 13:53:00,
2013-01-26 08:00:00,36.0,-99.9,-100.00,West,271,1.0,6.0,-999,-99.99,,,0.05,0.000000,,2013-01-26 15:00:00,
2013-01-26 08:53:00,36.0,-99.9,-100.00,West,271,1.0,6.0,-999,-99.99,,,0.05,0.000000,,2013-01-26 15:53:00,
2013-01-26 09:00:00,35.0,-99.9,-100.00,WNW,291,2.0,10.0,-999,-99.99,,,0.05,0.000000,,2013-01-26 16:00:00,
2013-01-26 09:53:00,35.0,-99.9,-100.00,WNW,291,2.0,10.0,-999,-99.99,,,0.05,0.000000,,2013-01-26 16:53:00,
2013-01-26 12:00:00,35.0,-99.9,-100.00,North,-999,-999.0,-999.0,-999,-99.99,,,0.07,,,2013-01-26 19:00:00,
2013-01-26 12:53:00,35.0,-99.9,-100.00,North,-999,-999.0,-999.0,-999,-99.99,,,0.07,,,2013-01-26 19:53:00,
2013-01-26 13:00:00,35.0,-99.9,-100.00,North,-999,-999.0,-999.0,-999,-99.99,,,0.07,,,2013-01-26 20:00:00,
2013-01-26 13:53:00,35.0,-99.9,-100.00,North,-999,-999.0,-999.0,-999,-99.99,,,0.07,,,2013-01-26 20:53:00,
2013-01-26 14:00:00,35.0,-99.9,-100.00,NW,307,3.0,10.0,-999,-99.99,,,0.07,2.400000,,2013-01-26 21:00:00,
2013-01-26 14:52:00,35.0,-99.9,-100.00,NW,307,3.0,10.0,-999,-99.99,,,0.07,2.400000,,2013-01-26 21:52:00,
2013-01-26 16:00:00,35.0,-99.9,-100.00,North,-999,-999.0,-999.0,-999,-99.99,,,-99.99,,,2013-01-26 23:00:00,
2013-01-26 16:52:00,35.0,-99.9,-100.00,North,-999,-999.0,-999.0,-999,-99.99,,,-99.99,,,2013-01-26 23:52:00,
2013-01-26 17:00:00,34.0,-99.9,-100.00,North,-999,-999.0,-999.0,-999,-99.99,,,-99.99,,,2013-01-27 00:00:00,
2013-01-26 17:52:00,34.0,-99.9,-100.00,North,-999,-999.0,-999.0,-999,-99.99,,,-99.99,,,2013-01-27 00:52:00,
2013-01-26 18:00:00,33.0,-99.9,-100.00,NW,309,5.0,14.0,-999,-99.99,,,0.08,0.900000,,2013-01-27 01:00:00,
2013-01-26 18:52:00,33.0,-99.9,-100.00,NW,309,5.0,14.0,-999,-99.99,,,0.08,0.900000,,2013-01-27 01:52:00,
2013-01-26 19:00:00,33.0,-99.9,-100.00,NW,306,5.0,14.0,-999,-99.99,,,0.08,0.000000,,2013-01-27 02:00:00,
2013-01-26 19:52:00,33.0,-99.9,-100.00,NW,306,5.0,14.0,-999,-99.99,,,0.08,0.000000,,2013-01-27 02:52:00,
2013-01-26 20:00:00,33.0,-99.9,-100.00,NW,309,5.0,16.0,-999,-99.99,,,0.09,0.000000,,2013-01-27 03:00:00,
2013-01-26 20:52:00,33.0,-99.9,-100.00,NW,309,5.0,16.0,-999,-99.99,,,0.09,0.000000,,2013-01-27 03:52:00,
2013-01-26 21:00:00,32.0,-99.9,-100.00,WNW,303,5.0,12.0,-999,-99.99,,,0.09,0.000000,,2013-01-27 04:00:00,
2013-01-26 21:52:00,32.0,-99.9,-100.00,WNW,303,5.0,12.0,-999,-99.99,,,0.09,0.000000,,2013-01-27 04:52:00,
2013-01-26 22:00:00,32.0,-99.9,-100.00,NW,318,3.0,12.0,-999,-99.99,,,0.08,0.000000,,2013-01-27 05:00:00,
2013-01-26 22:52:00,32.0,-99.9,-100.00,NW,318,3.0,12.0,-999,-99.99,,,0.08,0.000000,,2013-01-27 05:52:00,